GW1942 Weather Reports


time (UTC)temp
F
wind
direction
speed
knots
gust
knots
rain 1hr
in
rain 24hr
in
rain mn
in
humidity
%
barometer
mb
20260903164501 57 161 0.0 0.9 0.00 0.21 0.04 82 1009.9
20260903163056 56 161 0.0 1.7 0.00 0.21 0.04 87 1009.8
20260903161554 55 161 0.0 1.7 0.00 0.21 0.04 91 1009.8
20260903160050 54 161 0.9 2.6 0.00 0.21 0.04 92 1009.8
20260903154547 53 161 0.0 1.7 0.00 0.21 0.04 94 1009.7
20260903153045 52 161 0.0 0.9 0.00 0.21 0.04 96 1009.4
20260903151542 51 161 0.0 2.6 0.00 0.21 0.04 95 1009.6
20260903150038 51 161 0.0 0.9 0.00 0.21 0.04 95 1009.5
20260903144539 51 161 0.0 0.9 0.00 0.21 0.04 95 1009.4
20260903143036 51 161 0.0 0.0 0.00 0.21 0.04 96 1009.3
20260903141534 51 161 0.0 0.0 0.00 0.21 0.04 96 1009.1
20260903140031 51 160 0.0 0.0 0.00 0.21 0.04 96 1008.9
20260903134530 51 161 0.0 1.7 0.00 0.21 0.04 96 1008.9
20260903133030 51 161 0.0 1.7 0.00 0.21 0.04 96 1008.7
20260903131530 50 161 0.0 0.0 0.00 0.21 0.04 96 1008.5
20260903130030 50 161 0.0 0.0 0.00 0.21 0.04 96 1008.5
20260903124527 50 161 0.0 0.0 0.00 0.21 0.04 95 1008.5
20260903123027 50 161 0.0 0.0 0.01 0.21 0.04 95 1008.1
20260903121526 51 161 0.0 0.0 0.01 0.21 0.04 95 1008.1
20260903120029 51 161 0.0 0.9 0.01 0.21 0.04 95 1008.3
20260903114525 51 161 0.0 0.0 0.01 0.21 0.04 95 1008.4
20260903113033 50 161 0.0 0.9 0.00 0.20 0.03 95 1008.6
20260903111523 51 161 0.0 0.0 0.00 0.20 0.03 95 1008.3
20260903110051 51 161 0.0 0.0 0.00 0.20 0.03 95 1008.2
20260903104522 51 161 0.0 0.0 0.00 0.20 0.03 95 1008.3
20260903103023 51 161 0.0 0.0 0.00 0.20 0.03 95 1008.1
20260903101519 50 161 0.0 0.9 0.00 0.20 0.03 96 1007.9
20260903100023 50 161 0.0 1.7 0.00 0.20 0.03 95 1007.8
20260903094542 50 161 0.0 1.7 0.00 0.20 0.03 95 1007.7
20260903093018 50 160 0.0 0.0 0.00 0.20 0.03 95 1007.7
20260903091521 50 161 0.0 0.0 0.00 0.20 0.03 94 1007.6
20260903090017 50 161 0.0 0.9 0.00 0.20 0.03 94 1007.7
20260903084516 51 161 0.0 0.0 0.00 0.20 0.03 94 1007.8
20260903083015 51 161 0.0 0.9 0.01 0.20 0.03 94 1008.0
20260903081518 51 161 0.0 0.9 0.01 0.20 0.03 94 1008.1
20260903080014 51 161 0.0 0.9 0.02 0.20 0.03 93 1007.9
20260903074512 51 160 0.0 1.7 0.03 0.20 0.03 94 1007.7
20260903073012 51 161 0.0 0.9 0.02 0.19 0.02 93 1008.1
20260903071510 51 161 0.0 0.0 0.02 0.19 0.02 93 1008.0
20260903070008 50 161 0.0 0.0 0.01 0.18 0.01 93 1007.8
20260903064509 50 161 0.0 0.9 0.00 0.17 0.00 92 1007.8
20260903063007 50 161 0.0 0.9 0.00 0.17 0.00 92 1007.6
20260903061504 50 161 0.9 3.5 0.00 0.17 0.00 92 1007.5
20260903060100 49 161 0.0 0.9 0.00 0.17 0.00 94 1007.6
20260903054559 50 161 0.9 1.7 0.00 0.17 0.17 92 1007.7
20260903053111 51 161 0.9 4.3 0.00 0.17 0.17 91 1007.6
20260903051601 49 161 0.0 0.9 0.00 0.17 0.17 94 1007.6
20260903050059 50 161 0.0 0.9 0.00 0.17 0.17 93 1007.6
20260903044604 50 161 0.0 0.9 0.00 0.17 0.17 94 1007.6
20260903043056 51 161 0.0 2.6 0.00 0.17 0.17 93 1007.7
20260903041555 51 161 0.0 1.7 0.00 0.17 0.17 91 1007.7
20260903040056 52 161 0.0 0.9 0.00 0.17 0.17 92 1007.8
20260903034552 52 161 0.0 0.9 0.00 0.17 0.17 93 1007.8
20260903033107 53 161 0.0 0.9 0.00 0.17 0.17 92 1007.6
20260903031550 53 161 0.0 1.7 0.00 0.17 0.17 91 1007.2
20260903030049 53 161 0.0 0.0 0.00 0.17 0.17 90 1007.1
20260903024548 54 161 0.0 0.9 0.00 0.17 0.17 89 1006.9
20260903023052 56 161 0.0 0.0 0.00 0.17 0.17 86 1006.7
20260903021603 58 161 0.0 0.0 0.00 0.17 0.17 82 1006.8
20260903020045 59 161 0.0 1.7 0.00 0.17 0.17 80 1007.1
20260903014548 59 161 0.0 1.7 0.00 0.17 0.17 80 1007.0
20260903013045 60 161 0.0 1.7 0.00 0.17 0.17 80 1006.9
20260903011546 61 161 0.0 1.7 0.00 0.17 0.17 77 1006.7
20260903010048 61 161 0.0 1.7 0.00 0.17 0.17 80 1006.7
20260903004555 61 161 0.0 2.6 0.00 0.17 0.17 81 1006.7
20260903003042 60 161 0.9 3.5 0.00 0.17 0.17 79 1006.9
20260903001542 61 161 0.9 2.6 0.00 0.17 0.17 79 1006.9
20260903000042 60 161 0.9 1.7 0.00 0.17 0.17 81 1006.8
20260902234540 60 161 0.0 1.7 0.00 0.17 0.17 83 1006.9
20260902233040 59 161 0.0 1.7 0.00 0.17 0.17 83 1006.8
20260902231547 59 161 0.0 1.7 0.00 0.17 0.17 83 1006.7
20260902230039 60 161 0.9 2.6 0.00 0.17 0.17 82 1006.5
20260902224538 60 161 1.7 4.3 0.00 0.17 0.17 81 1006.3
20260902223037 62 161 0.9 4.3 0.00 0.17 0.17 73 1006.2
20260902221538 63 161 0.0 1.7 0.00 0.17 0.17 69 1006.4
20260902220043 62 161 0.0 1.7 0.00 0.17 0.17 68 1006.4
20260902214538 62 161 0.0 0.9 0.00 0.17 0.17 72 1006.5
20260902213035 61 161 0.0 4.3 0.00 0.17 0.17 73 1006.6
20260902211534 60 161 1.7 5.2 0.00 0.17 0.17 80 1006.6
20260902210040 59 161 0.9 5.2 0.00 0.17 0.17 79 1006.8
20260902204541 59 161 1.7 4.3 0.05 0.17 0.17 85 1007.1
20260902203032 58 161 0.9 2.6 0.14 0.17 0.17 81 1006.8
20260902201533 58 161 0.0 1.7 0.17 0.17 0.17 83 1006.7
20260902200029 57 161 0.0 2.6 0.17 0.17 0.17 85 1006.5
20260902194526 56 161 0.0 7.0 0.12 0.12 0.12 83 1006.9
20260902193023 59 160 6.1 18.2 0.02 0.02 0.02 74 1007.1
20260902191523 65 161 3.5 7.8 0.00 0.00 0.00 53 1005.8
20260902190021 67 161 5.2 9.6 0.00 0.00 0.00 51 1005.0
20260902184519 68 162 2.6 7.8 0.00 0.00 0.00 51 1004.7
20260902183017 68 162 0.9 1.7 0.00 0.00 0.00 49 1004.6
20260902181518 67 162 1.7 4.3 0.00 0.00 0.00 49 1004.6
20260902180015 67 162 1.7 3.5 0.00 0.00 0.00 50 1004.6
20260902174511 66 162 0.0 3.5 0.00 0.00 0.00 51 1004.6
20260902173009 65 162 0.9 2.6 0.00 0.00 0.00 53 1004.6
20260902171505 64 162 0.0 0.9 0.00 0.00 0.00 55 1004.8
20260902170003 63 162 0.0 2.6 0.00 0.00 0.00 56 1004.8